Location: Branche des Alpilles
(43.6087°N, 4.6976°E)
Time: 10:02:11
(UTC+00:00)

N. Korean satellite - Pass Details

Date: 07 October 2021
Orbit: 450 x 495 km, 97.3° (Epoch: 15 October)

Event Time Altitude Azimuth Distance (km) Brightness Sun altitude
Rises 04:10:07 0° 27° (NNE) 2,569 10.8 -18.1°
Reaches altitude 10° 04:12:35 10° 44° (NE) 1,689 10.1 -17.6°
Maximum altitude 04:15:22 20° 94° (E) 1,175 9.4 -17.1°
Drops below altitude 10° 04:18:08 10° 144° (SE) 1,688 9.7 -16.6°
Sets 04:20:36 0° 161° (SSE) 2,567 10.4 -16.2°
